Location: Gouy
(50.0008°N, 3.2556°E)
Time: 01:14:00
(UTC+00:00)

Cosmos 1782 Rocket - Pass Details

Date: 19 August 2024
Orbit: 603 x 628 km, 82.5° (Epoch: 11 September)

Event Time Altitude Azimuth Distance (km) Brightness Sun altitude
Exits shadow 02:35:54 - 155° (SSE) 2,459 6.4 -17.7°
Reaches altitude 10° 02:37:11 10° 148° (SSE) 1,995 6.0 -17.5°
Maximum altitude 02:40:58 28° 89° (E) 1,172 5.4 -17.1°
Drops below altitude 10° 02:44:48 10° 30° (NNE) 2,017 7.4 -16.7°
Sets 02:47:16 0° 19° (NNE) 2,931 8.2 -16.4°
